Regional Weather Roundup
Issued by NWS

Home | Current Version | Previous Version | Text Only | Print | Product List | Glossary On
Versions: 1 2 3 4 5 6 7 8 9 10 11 12 13 14 15 16 17 18 19 20 21 22 23 24 25 26 27 28 29 30 31 32 33 34 35 36 37 38 39 40 41 42 43 44 45 46 47 48 49 50
000
ASUS44 KLUB 290610
RWRTX
WEST TEXAS WEATHER ROUNDUP
NATIONAL WEATHER SERVICE LUBBOCK TX
100 AM CDT FRI AUG 29 2014

NOTE: "FAIR" INDICATES FEW OR NO CLOUDS BELOW 12,000 FEET WITH NO
SIGNIFICANT WEATHER AND/OR OBSTRUCTIONS TO VISIBILITY.

TXZ004-006>008-010-012-014-016-OKZ002-290700-
TEXAS PANHANDLE/OKLAHOMA PANHANDLE

CITY           SKY/WX    TMP DP  RH WIND       PRES   REMARKS
AMARILLO       FAIR      65  61  87 E7        30.02S
BORGER         FAIR      68  60  75 SE8       30.01R
CANADIAN       FAIR      67  64  89 SW7       29.98R
DALHART        CLEAR     64  54  69 NE9       30.09R
DUMAS          FAIR      63  55  74 N12       30.06S
GUYMON         FAIR      66  60  81 NW7       30.00S
HEREFORD       FAIR      68  63  83 N5        30.03S
PAMPA          FAIR      62  59  90 SE12      30.02F
PERRYTON       FAIR      69  62  79 E10       30.02R
$$

TXZ026-029-035-045-048-290700-
SOUTHERN PANHANDLE/SOUTH PLAINS/ROLLING PLAINS

CITY           SKY/WX    TMP DP  RH WIND       PRES   REMARKS
CHILDRESS      FAIR      67  65  93 SE5       29.97F
SEMINOLE       FAIR      72  62  69 CALM      29.97S
LUBBOCK        FAIR      68  65  90 E12       29.98R
PLAINVIEW      FAIR      67  65  94 SE7       29.99R
SNYDER         MOCLDY    71  66  84 E21       29.95F THUNDER
$$

TXZ052-054-060>062-072-078-127-140-154-169-290700-
PERMIAN BASIN/CONCHO VALLEY/BIG COUNTRY/EDWARDS PLATEAU

CITY           SKY/WX    TMP DP  RH WIND       PRES   REMARKS
ABILENE        FAIR      73  69  87 N14       29.98R
BIG SPRING     MOCLDY    74  69  85 NE20G26   29.96S
BRADY          CLEAR     79  68  69 SE8       29.92R
BROWNWOOD      CLOUDY    82  68  61 SE13      29.93R
JUNCTION       FAIR      81  68  64 S10       29.91F
MIDLAND        FAIR      77  64  64 E7        29.93R
ODESSA         FAIR      81  60  48 S8        29.94S
SAN ANGELO     CLOUDY    82  61  48 E12       29.90R
SONORA         FAIR      82  66  57 S12       29.95S
SWEETWATER     MOCLDY    70  70 100 NE12      30.02F
WINK           FAIR      82  61  48 S12       29.90F
$$

TXZ055-058-074-075-080-082-290700-
FAR WEST/SOUTHWEST MOUNTAINS/TRANS PECOS

CITY           SKY/WX    TMP DP  RH WIND       PRES   REMARKS
ALPINE         FAIR      73  57  57 SW8       30.11S
DRYDEN           N/A     83  60  45 E5        29.89S
EL PASO        CLEAR     80  48  32 CALM      30.01S
FORT STOCKTON  FAIR      74  65  73 S6        29.94F
GUADALUPE PASS CLEAR     74  38  27 E6        30.13S
MARFA          FAIR      63  57  82 N6        30.11F
PECOS          FAIR      74  65  72 CALM      29.90F
PRESIDIO       FAIR      80  64  58 N5        29.94S
$$

TXZ014-016-019-021>030-083-290700
TEXAS TECH WEST TEXAS MESONET/TEXAS PANHANDLE/NORTHERN SOUTH PLAINS

CITY           SKY/WX    TMP DP  RH WIND       PRES   REMARKS
ABERNATHY 5ENE   N/A     65  63  93 E8        30.00S
AMARILLO 9NNE    N/A     65  62  91 CALM      30.01S
AMARILLO 7SSE    N/A     64  62  91 E5        30.03S
AMHERST 1NE      N/A     65  63  91 E9        30.00S
BOOTLEG 11WNW    N/A     62  57  82 N7        30.09S
CANADIAN 6E      N/A     66  63  90 S5        29.97R
CAPROCK CYN SP   N/A     64  64  99 NE2       30.00S
CHILDRESS 2NNE   N/A     66  64  95 SE5       29.96F
CLARENDON 2WSW   N/A     64  61  92 E7        30.00F
CLAUDE 12SW      N/A     63  62  99 E12       30.03R
DIMMITT 2NE      N/A     62  57  82 NE6       30.04R
FLOYDADA 2NNE    N/A     66  64  93 SE10      29.99S
FRIONA 2NE       N/A     64  58  83 N6        30.04F
GOODLETT 3W      N/A     67  64  89 NE5       29.95R
HART 3N          N/A     63  60  89 NE6       30.02S
HEREFORD 2NW     N/A     64  59  84 N2        30.03S
MCLEAN 1E        N/A     63  62  96 SE7       29.99F
MEMPHIS 1NE      N/A     65  64  95 N2        29.99R
MULESHOE 2SSW    N/A     63  59  88 E5        30.00F
OLTON 6S         N/A     64  61  90 E2        30.00R
PALO DURO SP     N/A     65  61  88 SE5       30.04R
PAMPA 2E         N/A     63  61  94 SE9       30.02S
PLAINVIEW 1S     N/A     66  64  94 SE8       29.99S
SILVERTON 7ESE   N/A     64  62  94 E5        30.01S
TULIA 2ENE       N/A     62  61  96 N6        30.02R
TURKEY 2WSW      N/A     65  64  96 NE5       29.98R
UMBARGER 3NNE    N/A     67  59  73 E5        30.03S
$$

TXZ033>036-039>041-045>048-290700
TEXAS TECH WEST TEXAS MESONET/SOUTH PLAINS

CITY           SKY/WX    TMP DP  RH WIND       PRES   REMARKS
AIKEN 3WSW       N/A     66  65  96 SE9       30.00S
ANDREWS 2NE      N/A     73  63  70 SE7       29.94F
ANTON 6SSW       N/A     65  63  91 E7        29.98S
BROWNFIELD 2S    N/A     70  61  73 E9        29.98S
DENVR CTY 7WNW   N/A     71  60  68 SE2       29.98S
GAIL 2ESE        N/A     73  63  71 E15       29.95S
LAMESA 2SE       N/A     72  64  75 E14       29.96F
LEVELLAND 4S     N/A     68  62  82 SE7       29.98S
LUBBOCK 3WNW     N/A     68  64  85 E8        29.98S
MORTON 1ENE      N/A     64  60  88 N7        29.99S
ODONNELL 1N      N/A     71  63  76 E12       29.97R
PLAINS 3N        N/A     71  58  64 SE3       29.98F
RALLS 1SE        N/A     67  64  91 SE8       30.00S
REESE CENTER     N/A     68  64  87 E9        29.98S
SEAGRAVES 1SW    N/A     71  62  72 S3        29.97S
SEMINOLE 2NNE    N/A     70  60  70 NE3       29.96S
SLATON 2NE       N/A     68  65  90 E12       29.98S
SNYDER 3E      RAIN      66  64  94 E25       29.93F
SUNDOWN 8SW      N/A     70  60  70 E9        29.99R
TAHOKA 3NNE      N/A     68  64  88 E8        29.98R
WOLFFORTH 6SSW   N/A     67  64  88 SE8       29.98S
$$

TXZ031-032-036>038-042>044-290700-
TEXAS TECH WEST TEXAS MESONET/ROLLING PLAINS

CITY           SKY/WX    TMP DP  RH WIND       PRES   REMARKS
ASPERMONT 3NE    N/A     68  66  92 SE6       29.93F
FLUVANNA 3WNW    N/A     70  61  74 E9        29.96R
GRAHAM 5SSW      N/A     69  65  89 E8        29.97S
GUTHRIE 10WSW    N/A     68  66  92 SE2       29.93F
HASKELL 1NW      N/A     70  66  86 SE10      29.90F
JAYTON 1SSE      N/A     69  65  89 SE8       29.94F
KNOX CITY 3NW    N/A     70  64  81 E8        29.91F
LK A HENRY 1NW   N/A     69  66  89 E8        29.94F
NORTHFIELD 1S    N/A     66  65  97 NE6       29.97R
ODELL 4ENE       N/A     68  65  90 E5        29.95R
PADUCAH 10SW     N/A     66  64  91 SE1       29.95F
POST 1NE         N/A     69  64  82 E9        29.96S
RRING SPRGS 3N   N/A     66  65  97 S5        29.96F
SEYMOUR 3NW      N/A     71  66  83 SE16      29.90F
SPUR 1W          N/A     68  64  88 E3        29.95F
WEINERT 2NNE     N/A     68  66  93 NE5       29.94F
WHITE RVR 6NE    N/A     67  65  92 E6        29.97S
$$

TXZ052-054-060>062-072-078-127-140-154-169-290700-
TEXAS TECH WEST TEXAS MESONET/PERMIAN BASIN/
CONCHO VALLEY/BIG COUNTRY/EDWARDS PLATEAU

CITY           SKY/WX    TMP DP  RH WIND       PRES   REMARKS
JUNCTION 1SSW    N/A     80  69  67 S7        29.91F
MERTZON 3NNE     N/A     82  62  49 S8        29.90S
SAN ANGELO 7NW   N/A     76  64  66 NE14      29.92R
STRLNG CT 4WSW   N/A     75  64  68 NE9       29.95R
ST LAWRNCE 5SW   N/A     73  65  76 E3        29.93R
SWEETWATR 11SW   N/A     69  67  96 NE16      30.00F
WALL 1E          N/A     80  64  57 E9        29.92R
$$

TXZ055-058-074-075-080-082-290700-
TEXAS TECH WEST TEXAS MESONET/FAR WEST/SOUTHWEST MOUNTAINS/TRANS PECOS

CITY           SKY/WX    TMP DP  RH WIND       PRES   REMARKS
PRSMN GAP BBNP   N/A     77  66  68 N12       29.94S
GUADLPE MTN NP   N/A     75  37  25 NW16      30.13S
$$


USA.gov is the U.S. government's official web portal to all federal, state and local government web resources and services.